Weather reports worldwide

Advertisment
Capo Carbonara, Italy (16564): temperature & dewpoint: 21.02.2020 16:00:00 - 27.02.2020 16:00:00 (CET)Capo Carbonara, Italy (16564): wind speed: 21.02.2020 16:00:00 - 27.02.2020 16:00:00 (CET)Capo Carbonara, Italy (16564): wind direction: 21.02.2020 16:00:00 - 27.02.2020 16:00:00 (CET)Capo Carbonara, Italy (16564): reduced air pressure: 21.02.2020 16:00:00 - 27.02.2020 16:00:00 (CET)Capo Carbonara, Italy (16564): visibility: 21.02.2020 16:00:00 - 27.02.2020 16:00:00 (CET)
Date & Time tt [°C] td [°C] ff [km/h] ff [kn] dd ppp [hPa] vv [km]
27.02.2020 16:00:00 14,0 10,9 57 31 W 1016,1 20
27.02.2020 15:00:00 14,0 11,0 78 42 W - 10
27.02.2020 14:00:00 14,0 10,0 65 35 W - 10
27.02.2020 13:00:00 13,4 9,7 55 30 W 1017,3 20
27.02.2020 12:00:00 14,0 10,0 31 17 W - 10
27.02.2020 11:00:00 12,0 8,0 37 20 WNW - 10
27.02.2020 10:00:00 11,8 8,3 29 16 W 1018,2 20
27.02.2020 09:00:00 11,0 8,0 41 22 WNW - 10
27.02.2020 08:00:00 10,0 7,0 41 22 W - 10
27.02.2020 07:00:00 10,2 7,4 63 34 W 1015,8 20
27.02.2020 06:00:00 11,0 7,0 46 25 W - 10
27.02.2020 05:00:00 11,0 8,0 48 26 W - 10
27.02.2020 04:00:00 11,0 6,8 41 22 W 1016,3 10
27.02.2020 03:00:00 11,0 7,0 37 20 W - 10
27.02.2020 02:00:00 11,0 7,0 46 25 W - 10
27.02.2020 01:00:00 11,6 7,5 52 28 W 1015,7 10
27.02.2020 00:00:00 12,0 8,0 46 25 WNW - 10
26.02.2020 23:00:00 12,0 7,0 39 21 W - 10
26.02.2020 22:00:00 11,8 6,9 39 21 W 1014,3 10
26.02.2020 21:00:00 12,0 8,0 44 24 W - 10
26.02.2020 20:00:00 12,0 9,0 41 22 W - 10
26.02.2020 19:00:00 12,2 9,5 39 21 WNW 1012,6 10
26.02.2020 18:00:00 13,0 11,0 48 26 W - 10
26.02.2020 17:00:00 13,0 11,0 50 27 W - 10
26.02.2020 16:00:00 13,4 8,4 39 21 WNW 1011,5 20
26.02.2020 15:00:00 14,0 10,0 44 24 NW - 10
26.02.2020 14:00:00 15,0 10,0 44 24 WNW - 10
26.02.2020 13:00:00 14,2 11,6 44 24 W 1011,9 20
26.02.2020 12:00:00 15,0 12,0 55 30 W - 10
26.02.2020 11:00:00 15,0 11,0 48 26 W - 10
26.02.2020 10:00:00 13,2 11,2 42 23 W 1012,6 20
26.02.2020 09:00:00 - - - - - - -
26.02.2020 08:00:00 14,0 10,0 65 35 WNW - 10
26.02.2020 07:00:00 14,8 10,6 48 26 NW 1011,3 10
26.02.2020 06:00:00 13,0 11,0 39 21 W - 10
26.02.2020 05:00:00 13,0 11,0 48 26 W - 10
26.02.2020 04:00:00 13,6 11,7 39 21 W 1011,3 10
26.02.2020 03:00:00 14,0 12,0 52 28 W - 10
26.02.2020 02:00:00 14,0 12,0 65 35 W - 10
26.02.2020 01:00:00 14,0 12,1 59 32 W 1011,3 10
26.02.2020 00:00:00 14,0 12,0 50 27 W - 10
25.02.2020 23:00:00 14,0 12,0 46 25 WNW - 10
25.02.2020 22:00:00 14,4 12,5 44 24 WNW 1012,2 10
25.02.2020 21:00:00 15,0 12,0 42 23 W - 10
25.02.2020 20:00:00 15,0 12,0 54 29 W - 10
25.02.2020 19:00:00 14,8 12,8 48 26 SW 1012,2 20
25.02.2020 18:00:00 15,0 14,0 42 23 SW - 10
25.02.2020 17:00:00 16,0 14,0 42 23 SW - 10
25.02.2020 16:00:00 17,4 15,4 35 19 SW 1013,2 20
25.02.2020 15:00:00 17,0 16,0 31 17 SW - 10
25.02.2020 14:00:00 18,0 16,0 26 14 WSW - 10
25.02.2020 13:00:00 17,0 15,0 26 14 N 1016,1 20
25.02.2020 12:00:00 16,0 13,0 29 16 NE - 10
25.02.2020 11:00:00 15,0 12,0 42 23 WSW - 10
25.02.2020 10:00:00 14,4 13,2 35 19 WSW 1017,0 20
25.02.2020 09:00:00 14,0 9,0 35 19 W - 10
25.02.2020 08:00:00 14,0 12,0 26 14 W - 10
25.02.2020 07:00:00 13,8 10,8 29 16 W 1017,6 20
25.02.2020 06:00:00 13,0 11,0 35 19 W - 10
25.02.2020 05:00:00 13,0 11,0 35 19 W - 10
25.02.2020 04:00:00 14,0 12,3 34 18 W 1018,2 20
25.02.2020 03:00:00 14,0 12,0 42 23 W - 10
25.02.2020 02:00:00 15,0 10,0 35 19 W - 10
25.02.2020 01:00:00 15,0 9,5 37 20 W 1019,2 20
25.02.2020 00:00:00 14,0 12,0 35 19 W - 10
24.02.2020 23:00:00 15,0 12,0 37 20 W - 10
24.02.2020 22:00:00 15,0 12,5 46 25 W 1020,1 20
24.02.2020 21:00:00 16,0 13,0 52 28 W - 10
24.02.2020 20:00:00 16,0 13,0 57 31 W - 10
24.02.2020 19:00:00 16,0 14,4 39 21 W 1019,9 20
24.02.2020 18:00:00 18,0 15,0 57 31 W - 10
24.02.2020 17:00:00 18,0 16,0 57 31 W - 10
24.02.2020 16:00:00 19,0 15,0 61 33 W - 10
24.02.2020 15:00:00 18,0 14,0 67 36 W - 10
24.02.2020 14:00:00 18,0 15,0 76 41 W - 10
24.02.2020 13:00:00 17,2 14,6 74 40 W 1021,9 20
24.02.2020 12:00:00 16,0 14,0 78 42 W - 10
24.02.2020 11:00:00 15,0 13,0 76 41 W - 10
24.02.2020 10:00:00 13,6 11,1 74 40 W 1022,9 10
24.02.2020 09:00:00 13,0 11,0 74 40 W - 10
24.02.2020 08:00:00 13,0 10,0 63 34 W - 10
24.02.2020 07:00:00 12,8 10,3 63 34 W 1023,7 10
24.02.2020 06:00:00 13,0 11,0 57 31 W - 10
24.02.2020 05:00:00 13,0 10,0 55 30 W - 10
24.02.2020 04:00:00 12,8 10,2 65 35 W 1024,2 10
24.02.2020 03:00:00 13,0 10,0 67 36 W - 10
24.02.2020 02:00:00 13,0 10,0 68 37 W - 10
24.02.2020 01:00:00 12,0 9,9 83 45 W 1025,3 10
24.02.2020 00:00:00 12,0 10,0 76 41 W - 10
23.02.2020 23:00:00 12,0 10,0 55 30 W - 10
23.02.2020 22:00:00 12,6 10,3 55 30 W 1028,0 10
23.02.2020 21:00:00 14,0 11,0 55 30 W - 10
23.02.2020 20:00:00 14,0 11,0 50 27 W - 10
23.02.2020 19:00:00 15,0 12,5 37 20 W 1028,9 10
23.02.2020 18:00:00 15,0 13,0 31 17 WSW - 10
23.02.2020 17:00:00 16,0 13,0 44 24 SW - 10
23.02.2020 16:00:00 16,2 13,9 54 29 SW 1028,6 10
23.02.2020 15:00:00 16,0 13,0 39 21 SW - 10
23.02.2020 14:00:00 16,0 14,0 42 23 WSW - 10
23.02.2020 13:00:00 16,0 13,4 52 28 WSW 1030,7 10
23.02.2020 12:00:00 14,0 12,0 59 32 WSW - 10
23.02.2020 11:00:00 14,0 11,0 54 29 W - 10
23.02.2020 10:00:00 12,8 10,3 52 28 WSW 1031,5 10
23.02.2020 09:00:00 12,0 10,0 48 26 WSW - 10
23.02.2020 08:00:00 12,0 10,0 37 20 WSW - 10
23.02.2020 07:00:00 11,8 9,4 41 22 WSW 1031,5 10
23.02.2020 06:00:00 12,0 9,0 37 20 WSW - 10
23.02.2020 05:00:00 12,0 10,0 22 12 WSW - 10
23.02.2020 04:00:00 12,4 9,9 22 12 WSW 1031,9 20
23.02.2020 03:00:00 13,0 11,0 21 11 WSW - 10
23.02.2020 02:00:00 13,0 11,0 22 12 W - 10
23.02.2020 01:00:00 12,8 10,6 24 13 W 1032,3 20
23.02.2020 00:00:00 13,0 11,0 21 11 W - 10
22.02.2020 23:00:00 13,0 11,0 16 9 W - 10
22.02.2020 22:00:00 13,0 10,9 16 9 W 1032,5 20
22.02.2020 21:00:00 13,0 11,0 16 9 WSW - 10
22.02.2020 20:00:00 13,0 11,0 8 4 WSW - 10
22.02.2020 19:00:00 13,8 12,0 2 1 ESE 1031,4 20
22.02.2020 18:00:00 15,0 13,0 5 3 SE - 10
22.02.2020 17:00:00 17,0 14,0 8 4 SE - 10
22.02.2020 16:00:00 16,0 13,5 5 3 SSE 1030,5 20
22.02.2020 15:00:00 16,0 13,0 9 5 E - 10
22.02.2020 14:00:00 16,0 13,0 13 7 E - 10
22.02.2020 13:00:00 16,0 13,4 16 9 E 1030,7 20
22.02.2020 12:00:00 16,0 13,0 16 9 E - 10
22.02.2020 11:00:00 14,0 12,0 15 8 ENE - 10
22.02.2020 10:00:00 13,4 11,3 13 7 NE 1029,7 20
22.02.2020 09:00:00 13,0 11,0 15 8 NE - 10
22.02.2020 08:00:00 12,0 10,0 21 11 NNE - 10
22.02.2020 07:00:00 12,0 10,3 22 12 NE 1028,0 20
22.02.2020 06:00:00 12,0 10,0 16 9 NNE - 10
22.02.2020 05:00:00 12,0 10,0 15 8 NNE - 10
22.02.2020 04:00:00 11,0 8,9 15 8 NNE 1026,2 20
22.02.2020 03:00:00 12,0 9,0 0 0 N - 10
22.02.2020 02:00:00 12,0 9,0 0 0 N - 10
22.02.2020 01:00:00 12,2 8,9 0 0 N 1025,8 20
22.02.2020 00:00:00 12,0 9,0 9 5 WNW - 10
21.02.2020 23:00:00 12,0 10,0 18 10 WNW - 10
21.02.2020 22:00:00 12,6 10,2 34 18 W 1024,8 20
21.02.2020 21:00:00 13,0 11,0 39 21 W - 10
21.02.2020 20:00:00 13,0 11,0 46 25 WNW - 10
21.02.2020 19:00:00 14,0 11,3 61 33 WNW 1024,1 20
21.02.2020 18:00:00 15,0 12,0 41 22 W - 10
21.02.2020 17:00:00 16,0 13,0 50 27 W - 10
21.02.2020 16:00:00 16,6 13,0 52 28 W 1023,2 20

tt = temperature
td = dewpoint
ff = wind speed
dd = wind direction
ppp = reduced air pressure
vv = visibility

Next stations